This demonstration page uses our WeatherBlox Daily Observations layout. Learn more.

Left ArrowRight Arrow

Hourly Observations for September 22, 2022

Temp ( °F °C ) Dew Point ( °F °C ) Humidity (%) Winds ( mph kmh ) Pressure ( in mb ) Visibility ( mi km ) Precip ( " mm )
12:15 am 00:15 Mostly Cloudy 75 24 64 18 69 69 N 13 20 29.87 1011 10 16 0.00 0.00
12:35 am 00:35 Mostly Cloudy 73 23 61 16 65 65 NNW 12 19 29.89 1012 10 16 0.00 0.00
12:55 am 00:55 Mostly Cloudy 73 23 61 16 65 65 NNW 13 20 29.88 1012 10 16 0.00 0.00
1:15 am 01:15 Partly Cloudy 72 22 59 15 65 65 NNW 14 22 29.89 1012 10 16 0.00 0.00
1:35 am 01:35 Partly Cloudy 70 21 55 13 60 60 N 15 24 29.90 1013 10 16 0.00 0.00
1:55 am 01:55 Clear 68 20 54 12 60 60 NNW 12 19 29.91 1013 10 16 0.00 0.00
2:15 am 02:15 Mostly Cloudy 68 20 52 11 56 56 NNW 20 31 29.92 1013 10 16 0.00 0.00
2:35 am 02:35 Mostly Cloudy 66 19 52 11 60 60 NNW 13 20 29.92 1013 10 16 0.00 0.00
2:55 am 02:55 Mostly Cloudy 66 19 52 11 60 60 N 12 19 29.93 1014 10 16 0.00 0.00
3:15 am 03:15 Partly Cloudy 64 18 54 12 68 68 N 9 15 29.94 1014 10 16 0.00 0.00
3:35 am 03:35 Clear 64 18 54 12 68 68 N 9 15 29.93 1014 10 16 0.00 0.00
3:55 am 03:55 Partly Cloudy 64 18 54 12 68 68 NNW 16 26 29.94 1014 10 16 0.00 0.00
4:15 am 04:15 Partly Cloudy 63 17 52 11 68 68 N 16 26 29.95 1014 10 16 0.00 0.00
4:35 am 04:35 Clear 63 17 52 11 68 68 NNW 12 19 29.96 1015 10 16 0.00 0.00
4:55 am 04:55 Clear 63 17 52 11 68 68 NNW 10 17 29.97 1015 10 16 0.00 0.00
5:15 am 05:15 Clear 63 17 52 11 68 68 NNW 15 24 29.98 1015 10 16 0.00 0.00
5:35 am 05:35 Partly Cloudy 63 17 52 11 68 68 NNW 17 28 29.98 1015 10 16 0.00 0.00
5:55 am 05:55 Mostly Cloudy 61 16 52 11 72 72 NNW 13 20 29.98 1015 10 16 0.00 0.00
6:15 am 06:15 Mostly Cloudy 61 16 52 11 72 72 NNW 12 19 29.99 1016 10 16 0.00 0.00
6:35 am 06:35 Partly Cloudy 61 16 50 10 68 68 NNW 13 20 30.00 1016 10 16 0.00 0.00
6:55 am 06:55 Clear 59 15 50 10 72 72 NNW 13 20 30.01 1016 10 16 0.00 0.00
7:15 am 07:15 Clear 59 15 50 10 72 72 NNW 10 17 30.01 1016 10 16 0.00 0.00
7:35 am 07:35 Sunny 57 14 50 10 77 77 NNW 8 13 30.02 1017 10 16 0.00 0.00
7:55 am 07:55 Sunny 57 14 50 10 77 77 NW 8 13 30.04 1017 10 16 0.00 0.00
8:15 am 08:15 Sunny 57 14 50 10 77 77 NW 10 17 30.05 1018 10 16 0.00 0.00
8:35 am 08:35 Sunny 57 14 50 10 77 77 NW 10 17 30.06 1018 10 16 0.00 0.00
8:55 am 08:55 Sunny 59 15 52 11 77 77 NNW 12 19 30.04 1017 10 16 0.00 0.00
9:15 am 09:15 Sunny 61 16 52 11 72 72 NNW 14 22 30.06 1018 10 16 0.00 0.00
9:35 am 09:35 Sunny 61 16 52 11 72 72 NNW 12 19 30.06 1018 10 16 0.00 0.00
9:55 am 09:55 Sunny 61 16 52 11 72 72 NW 14 22 30.07 1018 10 16 0.00 0.00
10:15 am 10:15 Partly Cloudy 63 17 52 11 68 68 N 12 19 30.08 1018 10 16 0.00 0.00
10:35 am 10:35 Partly Cloudy 63 17 52 11 68 68 NNW 16 26 30.08 1018 10 16 0.00 0.00
10:55 am 10:55 Partly Cloudy 63 17 50 10 63 63 NNW 17 28 30.08 1018 10 16 0.00 0.00
11:15 am 11:15 Mostly Cloudy 63 17 50 10 63 63 NNW 15 24 30.09 1019 10 16 0.00 0.00
11:35 am 11:35 Mostly Cloudy 63 17 48 9 59 59 NNW 12 19 30.09 1019 10 16 0.00 0.00
11:55 am 11:55 Mostly Cloudy 63 17 48 9 59 59 NNW 16 26 30.10 1019 10 16 0.00 0.00
12:15 pm 12:15 Partly Cloudy 66 19 48 9 52 52 NNW 17 28 30.10 1019 10 16 0.00 0.00
12:35 pm 12:35 Partly Cloudy 66 19 46 8 49 49 NNW 16 26 30.10 1019 10 16 0.00 0.00
12:55 pm 12:55 Partly Cloudy 66 19 46 8 49 49 NNW 12 19 30.10 1019 10 16 0.00 0.00
1:15 pm 13:15 Mostly Cloudy 66 19 45 7 46 46 NNW 17 28 30.10 1019 10 16 0.00 0.00
2:31 pm 14:31 undefined N/A N/A N/A N 15 24 30.15 1021 N/A 0.00 0.00
2:35 pm 14:35 undefined 68 20 45 7 43 43 N 13 20 30.09 1019 N/A 0.00 0.00
2:55 pm 14:55 Partly Cloudy 68 20 46 8 46 46 N 14 22 30.09 1019 10 16 0.00 0.00
3:15 pm 15:15 Partly Cloudy 66 19 45 7 46 46 NW 17 28 30.09 1019 10 16 0.00 0.00
3:35 pm 15:35 Partly Cloudy 68 20 45 7 43 43 NNW 14 22 30.09 1019 10 16 0.00 0.00
3:55 pm 15:55 Partly Cloudy 66 19 45 7 46 46 NW 14 22 30.09 1019 10 16 0.00 0.00
4:15 pm 16:15 Sunny 66 19 45 7 46 46 NW 16 26 30.09 1019 10 16 0.00 0.00
4:35 pm 16:35 Sunny 66 19 43 6 43 43 N 14 22 30.10 1019 10 16 0.00 0.00
4:55 pm 16:55 Sunny 66 19 43 6 43 43 N 17 28 30.10 1019 10 16 0.00 0.00
5:15 pm 17:15 Sunny 64 18 41 5 42 42 NNW 18 30 30.11 1019 10 16 0.00 0.00
5:35 pm 17:35 Sunny 66 19 41 5 40 40 NNW 15 24 30.10 1019 10 16 0.00 0.00
5:55 pm 17:55 Sunny 64 18 41 5 42 42 NNW 14 22 30.11 1020 10 16 0.00 0.00
6:15 pm 18:15 Sunny 64 18 41 5 42 42 NNW 13 20 30.11 1020 10 16 0.00 0.00
6:35 pm 18:35 Sunny 63 17 41 5 45 45 NNW 13 20 30.12 1020 10 16 0.00 0.00
6:55 pm 18:55 Sunny 61 16 43 6 51 51 N 12 19 30.13 1020 10 16 0.00 0.00
7:15 pm 19:15 Sunny 59 15 41 5 51 51 NNW 10 17 30.13 1020 10 16 0.00 0.00
7:35 pm 19:35 Sunny 59 15 41 5 51 51 NNW 10 17 30.13 1020 10 16 0.00 0.00
7:55 pm 19:55 Clear 57 14 41 5 55 55 NNW 7 11 30.15 1021 10 16 0.00 0.00
8:15 pm 20:15 Clear 57 14 43 6 58 58 NNW 10 17 30.15 1021 10 16 0.00 0.00
8:35 pm 20:35 Clear 55 13 43 6 62 62 NNW 8 13 30.16 1021 10 16 0.00 0.00
8:55 pm 20:55 Clear 55 13 43 6 62 62 N 8 13 30.16 1021 10 16 0.00 0.00
9:15 pm 21:15 Clear 54 12 43 6 67 67 N 8 13 30.18 1022 10 16 0.00 0.00
9:35 pm 21:35 Clear 54 12 43 6 67 67 NNW 7 11 30.18 1022 10 16 0.00 0.00
9:55 pm 21:55 Clear 54 12 45 7 71 71 N 7 11 30.19 1022 10 16 0.00 0.00
10:15 pm 22:15 Clear 52 11 45 7 76 76 N 6 9 30.20 1023 10 16 0.00 0.00
10:35 pm 22:35 Clear 50 10 45 7 82 82 N 6 9 30.20 1023 10 16 0.00 0.00
10:55 pm 22:55 Clear 50 10 45 7 82 82 N 6 9 30.20 1023 10 16 0.00 0.00
11:15 pm 23:15 Clear 48 9 45 7 87 87 N 6 9 30.20 1023 10 16 0.00 0.00
11:35 pm 23:35 Clear 48 9 46 8 93 93 N 5 7 30.21 1023 10 16 0.00 0.00
11:55 pm 23:55 Clear 46 8 46 8 100 100 N 6 9 30.21 1023 10 16 0.00 0.00

Powered by AerisWeather